Hourly Weather Kurytyba

Today, 7 August, Friday

Time Temperature Precipitation Wind Pressure Humidity
00:00 +11°C° 0 mm 0 mps 687 mmHg 91%
01:00 +11°C° 0 mm 0 mps 687 mmHg 91%
02:00 +11°C° 0 mm 0 mps 687 mmHg 91%
03:00 +11°C° 0 mm 0 mps 686 mmHg 93%
04:00 +10°C° 0 mm 0 mps 686 mmHg 92%
05:00 +10°C° 0 mm 0 mps 686 mmHg 92%
06:00 +10°C° 0 mm 0 mps 686 mmHg 91%
07:00 +12°C° 0 mm 0 mps 687 mmHg 82%
08:00 +14°C° 0 mm 0 mps 688 mmHg 72%
09:00 +16°C° 0 mm 1 mps 688 mmHg 64%
10:00 +19°C° 0 mm 1 mps 689 mmHg 54%
11:00 +22°C° 0 mm 1 mps 689 mmHg 44%
12:00 +24°C° 0 mm 1 mps 689 mmHg 34%
13:00 +24°C° 0 mm 1 mps 688 mmHg 34%
14:00 +24°C° 0 mm 1 mps 688 mmHg 33%
15:00 +25°C° 0 mm 1 mps 687 mmHg 32%
16:00 +22°C° 0 mm 1 mps 687 mmHg 43%
17:00 +20°C° 0 mm 1 mps 686 mmHg 54%
18:00 +18°C° 0 mm 1 mps 686 mmHg 65%
19:00 +16°C° 0 mm 1 mps 686 mmHg 72%
20:00 +15°C° 0 mm 1 mps 686 mmHg 80%
21:00 +14°C° 0 mm 1 mps 687 mmHg 87%
22:00 +14°C° 0 mm 1 mps 687 mmHg 88%
23:00 +13°C° 0 mm 0 mps 687 mmHg 88%

Tomorrow, 8 August, Saturday

Time Temperature Precipitation Wind Pressure Humidity
00:00 +12°C° 0 mm 0 mps 687 mmHg 89%
01:00 +12°C° 0 mm 0 mps 687 mmHg 89%
02:00 +12°C° 0 mm 0 mps 686 mmHg 89%
03:00 +12°C° 0 mm 0 mps 686 mmHg 88%
04:00 +12°C° 0 mm 0 mps 686 mmHg 88%
05:00 +12°C° 0 mm 0 mps 686 mmHg 87%
06:00 +11°C° 0 mm 0 mps 686 mmHg 86%
07:00 +13°C° 0 mm 0 mps 687 mmHg 78%
08:00 +15°C° 0 mm 0 mps 688 mmHg 70%
09:00 +17°C° 0 mm 0 mps 688 mmHg 62%
10:00 +21°C° 0 mm 1 mps 688 mmHg 54%
11:00 +23°C° 0 mm 1 mps 689 mmHg 46%
12:00 +24°C° 0 mm 1 mps 689 mmHg 38%
13:00 +25°C° 0 mm 1 mps 688 mmHg 37%
14:00 +25°C° 0 mm 1 mps 687 mmHg 37%
15:00 +25°C° 0 mm 1 mps 686 mmHg 37%
16:00 +23°C° 0 mm 1 mps 686 mmHg 47%
17:00 +20°C° 0 mm 1 mps 686 mmHg 58%
18:00 +18°C° 0 mm 1 mps 685 mmHg 68%
19:00 +16°C° 0 mm 1 mps 686 mmHg 75%
20:00 +15°C° 0 mm 1 mps 686 mmHg 82%
21:00 +15°C° 0 mm 1 mps 686 mmHg 89%
22:00 +14°C° 0 mm 1 mps 686 mmHg 90%
23:00 +14°C° 0 mm 1 mps 686 mmHg 92%

Day after tomorrow, 9 August, Sunday

Time Temperature Precipitation Wind Pressure Humidity
00:00 +14°C° 0 mm 1 mps 686 mmHg 93%
01:00 +14°C° 0 mm 1 mps 686 mmHg 94%
02:00 +13°C° 0 mm 1 mps 686 mmHg 94%
03:00 +13°C° 0 mm 1 mps 685 mmHg 95%
04:00 +13°C° 0 mm 1 mps 685 mmHg 94%
05:00 +12°C° 0 mm 1 mps 685 mmHg 94%
06:00 +11°C° 0 mm 0 mps 685 mmHg 94%
07:00 +14°C° 0 mm 1 mps 686 mmHg 84%
08:00 +15°C° 0 mm 1 mps 687 mmHg 74%
09:00 +18°C° 0 mm 1 mps 687 mmHg 64%
10:00 +20°C° 0 mm 1 mps 687 mmHg 56%
11:00 +22°C° 0 mm 1 mps 687 mmHg 48%
12:00 +24°C° 0 mm 1 mps 687 mmHg 40%
13:00 +24°C° 0 mm 1 mps 687 mmHg 40%
14:00 +24°C° 0 mm 2 mps 686 mmHg 40%
15:00 +25°C° 0 mm 2 mps 685 mmHg 39%
16:00 +23°C° 0 mm 1 mps 685 mmHg 49%
17:00 +21°C° 0 mm 1 mps 684 mmHg 58%
18:00 +19°C° 0 mm 1 mps 683 mmHg 67%
19:00 +18°C° 0 mm 1 mps 684 mmHg 72%
20:00 +16°C° 0 mm 1 mps 684 mmHg 77%
21:00 +15°C° 0 mm 1 mps 684 mmHg 82%
22:00 +15°C° 0 mm 1 mps 684 mmHg 81%
23:00 +15°C° 0 mm 1 mps 683 mmHg 79%

10 August, Monday

Time Temperature Precipitation Wind Pressure Humidity
00:00 +15°C° 0 mm 1 mps 683 mmHg 77%
01:00 +14°C° 0 mm 1 mps 683 mmHg 77%
02:00 +14°C° 0 mm 1 mps 682 mmHg 77%
03:00 +14°C° 0 mm 1 mps 682 mmHg 77%
04:00 +13°C° 0 mm 1 mps 682 mmHg 77%
05:00 +13°C° 0 mm 1 mps 682 mmHg 77%
06:00 +13°C° 0 mm 1 mps 681 mmHg 77%
07:00 +15°C° 0 mm 1 mps 682 mmHg 70%
08:00 +18°C° 0 mm 1 mps 683 mmHg 63%
09:00 +20°C° 0 mm 1 mps 684 mmHg 56%
10:00 +21°C° 0 mm 2 mps 683 mmHg 49%
11:00 +23°C° 0 mm 2 mps 683 mmHg 43%
12:00 +25°C° 0 mm 3 mps 683 mmHg 36%
13:00 +26°C° 0 mm 3 mps 683 mmHg 35%
14:00 +26°C° 0 mm 2 mps 682 mmHg 34%
15:00 +27°C° 0 mm 2 mps 682 mmHg 33%
16:00 +25°C° 0 mm 2 mps 681 mmHg 40%
17:00 +23°C° 0 mm 1 mps 681 mmHg 48%
18:00 +21°C° 0 mm 1 mps 680 mmHg 55%
19:00 +20°C° 0 mm 1 mps 680 mmHg 57%
20:00 +19°C° 0 mm 1 mps 680 mmHg 60%
21:00 +18°C° 0 mm 1 mps 681 mmHg 62%
22:00 +18°C° 0 mm 1 mps 681 mmHg 64%
23:00 +18°C° 0 mm 1 mps 681 mmHg 65%

11 August, Tuesday

Time Temperature Precipitation Wind Pressure Humidity
00:00 +18°C° 0 mm 1 mps 680 mmHg 66%
01:00 +16°C° 0 mm 1 mps 680 mmHg 67%
02:00 +16°C° 0 mm 1 mps 680 mmHg 68%
03:00 +16°C° 0 mm 1 mps 680 mmHg 68%
04:00 +15°C° 0 mm 1 mps 680 mmHg 68%
05:00 +15°C° 0 mm 1 mps 680 mmHg 68%
06:00 +15°C° 0 mm 1 mps 680 mmHg 68%
07:00 +18°C° 0 mm 1 mps 681 mmHg 63%
08:00 +20°C° 0 mm 1 mps 681 mmHg 57%
09:00 +21°C° 0 mm 1 mps 682 mmHg 51%
10:00 +23°C° 0 mm 1 mps 682 mmHg 45%
11:00 +26°C° 0 mm 2 mps 682 mmHg 38%
12:00 +28°C° 0 mm 2 mps 682 mmHg 32%
13:00 +28°C° 0 mm 2 mps 682 mmHg 31%
14:00 +29°C° 0 mm 2 mps 682 mmHg 30%
15:00 +29°C° 0 mm 1 mps 681 mmHg 29%
16:00 +26°C° 0 mm 2 mps 681 mmHg 45%
17:00 +23°C° 0 mm 2 mps 681 mmHg 61%
18:00 +18°C° 0 mm 2 mps 680 mmHg 76%
19:00 +17°C° 0 mm 2 mps 680 mmHg 80%
20:00 +16°C° 0 mm 3 mps 681 mmHg 85%
21:00 +14°C° 0 mm 3 mps 681 mmHg 89%
22:00 +13°C° 0 mm 3 mps 681 mmHg 90%
23:00 +13°C° 0 mm 3 mps 681 mmHg 90%

12 August, Wednesday

Time Temperature Precipitation Wind Pressure Humidity
00:00 +13°C° 0 mm 3 mps 681 mmHg 91%
01:00 +13°C° 0 mm 3 mps 681 mmHg 90%
02:00 +12°C° 0 mm 3 mps 681 mmHg 90%
03:00 +12°C° 0 mm 3 mps 681 mmHg 89%
04:00 +13°C° 0 mm 2 mps 681 mmHg 89%
05:00 +13°C° 0 mm 2 mps 680 mmHg 90%
06:00 +13°C° 0 mm 2 mps 680 mmHg 90%
07:00 +14°C° 0 mm 2 mps 680 mmHg 87%
08:00 +13°C° 0 mm 3 mps 681 mmHg 84%
09:00 +14°C° 0 mm 3 mps 681 mmHg 81%
10:00 +17°C° 0 mm 3 mps 681 mmHg 73%
11:00 +19°C° 0 mm 2 mps 681 mmHg 65%
12:00 +21°C° 0 mm 2 mps 682 mmHg 56%
13:00 +23°C° 0 mm 2 mps 681 mmHg 55%
14:00 +23°C° 0 mm 2 mps 681 mmHg 54%
15:00 +24°C° 0 mm 2 mps 681 mmHg 53%
16:00 +21°C° 0.1 mm 2 mps 680 mmHg 64%
17:00 +19°C° 0.1 mm 2 mps 680 mmHg 75%
18:00 +16°C° 0.1 mm 2 mps 679 mmHg 86%
19:00 +16°C° 0.1 mm 2 mps 679 mmHg 88%
20:00 +15°C° 0.1 mm 2 mps 679 mmHg 90%
21:00 +15°C° 0.1 mm 2 mps 679 mmHg 93%
22:00 +15°C° 0 mm 2 mps 679 mmHg 93%
23:00 +15°C° 0 mm 2 mps 679 mmHg 94%
Show more